Location: Champs
(48.8539°N, 2.6040°E)
Time: 20:40:40
(UTC+00:00)

Cosmos 2056 Rocket - Pass Details

Date: 05 June 2022
Orbit: 741 x 801 km, 74.0° (Epoch: 30 June)

Event Time Altitude Azimuth Distance (km) Brightness Sun altitude
Exits shadow 02:40:47 10° 234° (SW) 2,290 5.3 -8.9°
Maximum altitude 02:45:37 38° 303° (WNW) 1,173 4.4 -8.4°
Drops below altitude 10° 02:50:37 10° 11° (N) 2,358 7.1 -7.8°
Sets 02:53:12 0° 20° (NNE) 3,299 8.2 -7.5°
